Dauntless Aviation
Greetings, Guest! To participate, [sign up for a free account] or [log in]
Airports North America United States Colorado
98CO

NCMC HELIPORT

GREELEY, CO, USA

Airport Info

Location

Latitude / Longitude: 40°24'53"N / 104°42'28"W
  40°24.9'N / 104°42.4667'W
  40.4150 / -104.7078
Elevation: 4882 ft. (estimated)
Variation: 12E (1985)
From city: 00 miles N of GREELEY, CO

Operations

Facility use: Private
Sectional chart: DENVER
Control tower: no
Boundary ARTCC: DENVER
FSS: DENVER [1-800-WX-BRIEF]
Segmented circle: no

Communications

Nearby radio navigation aids

VOR radial/distance VOR name Freq Var
GLL 233oT/8.9 GILL VORTAC 114.20 13E
DVV 353oT/31.5 MILE HIGH VORTAC 114.70 11E
BJC 33oT/36.1 JEFFCO VOR/DME 115.40 11E
DEN 357oT/36.2 DENVER VOR/DME 117.90 11E
 
NDB name Hdg/Dist Freq Var ID

Services

Runway Information

Helipad H1

Dimensions: 40 x 40 ft.
Surface: PORTLAND CEMENT CONCRETE,NO SPECIAL SURFACE TREATMENT
 

Additional Remarks

Instrument Procedures

No published instrument procedures available
Topographic chart at:
Satellite photo at:
Airport distance calculator
From:
Weather Reports

METAR

KGXY
4.2nm NE
KGXY 280915Z AUTO 31009KT 10SM CLR 16/11 A3016 RMK AO1
KFNL
14.3nm W
KFNL 280915Z AUTO 01009KT 10SM CLR 16/11 A3018 RMK AO1
KLMO
25.8nm SW
KLMO 280914Z AUTO 32005KT 10SM SCT110 18/12 A3019 RMK AO2 T01760118
KEIK
28.6nm S
KEIK 280915Z AUTO 00000KT 10SM CLR 16/13 A3018 RMK AO2 T01610126
KBDU
33.3nm SW
KBDU 280919Z AUTO 31004KT 10SM CLR 17/10 A3019 RMK AO2
KDEN
35.0nm SE
KDEN 280853Z 33010KT 10SM FEW070 SCT095 18/13 A3020 RMK AO2 SLP143 T01830128 53008

TAF

KDEN
35.0nm SE
KDEN 280844Z 2809/2912 33007KT P6SM SCT080 BKN110 FM281200 25007KT P6SM FEW100 SCT150 FM281500 33005KT P6SM SCT200 FM281800 01010KT P6SM FEW080 FM282100 02011KT P6SM SCT090 BKN180 FM290100 33006KT P6SM FEW090 BKN180 FM290300 22010KT P6SM SCT200
KBJC
35.3nm S
KBJC 280529Z 2806/2906 25007KT P6SM SCT110 BKN150 FM281500 33005KT P6SM SCT200 FM281800 36010KT P6SM FEW080 FM282100 02011KT P6SM SCT080 BKN150 FM290100 30006KT P6SM FEW090 BKN150 FM290300 27005KT P6SM SCT200
Safelog

 

Dauntless Aviation

© 2007-2015 Dauntless Aviation, all rights reserved
Information provided via PilotNav comes from a variety of official and unofficial data sources. As errors are possible, do not use PilotNav for primary flight planning purposes. Verify any information that you receive via PilotNav with current and canonical charts and other official documents. The material in this database is subject to database copyrights held by Dauntless Aviation and may not be copied without the express permission of Dauntless Aviation - licenses for use of part of all of this data are available for purchase; enquire via the Dauntless Aviation helpdesk. A number of mechanisms and markers exist in the database to protect against and identify infringement / copyright. Automated queries against this website are stictly prohibited, and all activity is logged and analyzed.